Steamboat Springs, CO

9:12 PM MDT on April 21, 2018 (GMT -0600)
Steamboat Springs-Adams

Weather History for KSBS - February, 2012

Change the Weather History Date:

Thursday, February 2, 2012

  Actual Average Record
Temperature  
Mean Temperature 28 °F -  
Max Temperature 39 °F 28 °F 50 °F (1934)
Min Temperature 17 °F 3 °F -36 °F (1956)
Degree Days  
Heating Degree Days 37    
Moisture  
Dew Point 11 °F    
Average Humidity 55    
Maximum Humidity 76    
Minimum Humidity 31    
Precipitation  
Precipitation 0.00 in - - ()
Sea Level Pressure  
Sea Level Pressure 29.95 in    
Wind  
Wind Speed 2 mph (SE)    
Max Wind Speed 17 mph    
Max Gust Speed 22 mph    
Visibility 10 miles    
Events      
Averages and records for this station are not official NWS values.
T = Trace of Precipitation, MM = Missing Value Source: NWS Daily Summary

Daily Weather History Graph

Daily Weather History Graph

Search for Another Location

Airport or City:

Astronomy

Feb. 02, 2012 Rise Set
Actual Time 7:16 AM MST 5:26 PM MST
Civil Twilight 6:47 AM MST 5:55 PM MST
Nautical Twilight 6:15 AM MST 6:27 PM MST
Astronomical Twilight 5:43 AM MST 6:59 PM MST
Moon 12:39 PM MST (2/2) 3:01 AM MST (2/2)
Length of Visible Light 11h 07m
Length of Day
10h 09m
Waxing Gibbous, 74% of the Moon is Illuminated
Feb 2
Waxing Gibbous
Feb 7
Full
Feb 14
Last Quarter
Feb 21
New
Feb 29
First Quarter

Hourly Weather History & Observations

Time (MST) Temp. Windchill Dew Point Humidity Pressure Visibility Wind Dir Wind Speed Gust Speed Precip Events Conditions
12:18 AM 23.0 °F - 10.4 °F 59% 30.06 in 10.0 mi Calm Calm - N/A   Clear
12:38 AM 21.7 °F - 10.6 °F 62% 30.06 in 10.0 mi Calm Calm - N/A   Clear
12:58 AM 21.2 °F - 11.3 °F 66% 30.06 in 10.0 mi Calm Calm - N/A   Clear
1:18 AM 21.2 °F - 11.3 °F 66% 30.05 in 10.0 mi Calm Calm - N/A   Clear
1:38 AM 21.2 °F - 11.3 °F 66% 30.04 in 10.0 mi Calm Calm - N/A   Clear
1:58 AM 22.3 °F - 11.1 °F 62% 30.04 in 10.0 mi Calm Calm - N/A   Scattered Clouds
2:18 AM 20.5 °F - 11.7 °F 69% 30.03 in 10.0 mi Calm Calm - N/A   Mostly Cloudy
2:58 AM 18.7 °F 13.5 °F 12.2 °F 76% 30.02 in 10.0 mi North 3.5 mph - N/A   Scattered Clouds
3:18 AM 21.0 °F 14.6 °F 11.1 °F 66% 30.00 in 10.0 mi East 4.6 mph - N/A   Clear
3:38 AM 18.5 °F - 10.8 °F 72% 30.00 in 10.0 mi Calm Calm - N/A   Clear
3:58 AM 19.2 °F 14.1 °F 10.4 °F 69% 30.00 in 10.0 mi NNW 3.5 mph - N/A   Clear
4:18 AM 19.4 °F - 9.5 °F 65% 29.99 in 10.0 mi Calm Calm - N/A   Clear
4:38 AM 19.0 °F - 10.0 °F 68% 29.99 in 10.0 mi Calm Calm - N/A   Clear
4:58 AM 18.0 °F - 9.5 °F 70% 29.99 in 10.0 mi Calm Calm - N/A   Scattered Clouds
5:18 AM 18.3 °F 13.1 °F 10.4 °F 71% 29.98 in 10.0 mi ESE 3.5 mph - N/A   Mostly Cloudy
5:38 AM 17.1 °F - 10.8 °F 76% 29.98 in 10.0 mi Calm Calm - N/A   Overcast
5:58 AM 17.2 °F - 10.9 °F 76% 29.98 in 10.0 mi Calm Calm - N/A   Overcast
6:18 AM 18.0 °F - 11.1 °F 75% 29.98 in 10.0 mi Calm Calm - N/A   Overcast
6:58 AM 19.8 °F - 10.6 °F 68% 29.98 in 10.0 mi Calm Calm - N/A   Overcast
7:18 AM 18.3 °F - 11.5 °F 75% 29.98 in 10.0 mi Calm Calm - N/A   Overcast
7:58 AM 18.9 °F - 10.8 °F 71% 29.97 in 10.0 mi Calm Calm - N/A   Scattered Clouds
8:18 AM 17.8 °F - 10.4 °F 73% 29.97 in 10.0 mi Calm Calm - N/A   Clear
8:38 AM 19.2 °F 12.5 °F 12.2 °F 74% 29.97 in 10.0 mi ESE 4.6 mph - N/A   Mostly Cloudy
8:58 AM 21.0 °F 16.2 °F 12.0 °F 68% 29.98 in 10.0 mi ESE 3.5 mph - N/A   Overcast
9:18 AM 24.3 °F - 11.3 °F 58% 29.97 in 10.0 mi Calm Calm - N/A   Overcast
9:38 AM 25.5 °F - 11.1 °F 54% 29.97 in 10.0 mi Calm Calm - N/A   Overcast
9:58 AM 25.9 °F - 11.1 °F 54% 29.97 in 10.0 mi Calm Calm - N/A   Overcast
10:18 AM 27.0 °F 23.0 °F 11.5 °F 52% 29.96 in 10.0 mi SSE 3.5 mph - N/A   Overcast
10:38 AM 29.5 °F 25.9 °F 10.9 °F 46% 29.96 in 10.0 mi SE 3.5 mph - N/A   Overcast
10:58 AM 30.6 °F - 10.9 °F 44% 29.95 in 10.0 mi Calm Calm - N/A   Overcast
11:18 AM 31.8 °F 28.5 °F 10.9 °F 42% 29.95 in 10.0 mi South 3.5 mph - N/A   Mostly Cloudy
11:38 AM 32.0 °F - 11.7 °F 43% 29.94 in 10.0 mi Calm Calm - N/A   Mostly Cloudy
11:58 AM 34.3 °F - 9.7 °F 36% 29.92 in 10.0 mi Calm Calm - N/A   Scattered Clouds
12:18 PM 34.9 °F 32.0 °F 9.0 °F 34% 29.91 in 10.0 mi SSW 3.5 mph - N/A   Clear
12:38 PM 35.8 °F 33.0 °F 8.4 °F 32% 29.90 in 10.0 mi WSW 3.5 mph - N/A   Clear
12:58 PM 36.7 °F - 9.9 °F 33% 29.89 in 10.0 mi Calm Calm - N/A   Clear
1:18 PM 38.3 °F - 10.2 °F 31% 29.88 in 10.0 mi Calm Calm - N/A   Clear
1:38 PM 39.2 °F 35.9 °F 11.3 °F 32% 29.88 in 10.0 mi WSW 4.6 mph - N/A   Clear
1:58 PM 39.7 °F 34.9 °F 11.1 °F 31% 29.87 in 10.0 mi SW 6.9 mph - N/A   Scattered Clouds
2:18 PM 38.3 °F 33.2 °F 13.3 °F 36% 29.87 in 10.0 mi SSW 6.9 mph - N/A   Overcast
2:38 PM 37.2 °F 31.9 °F 12.9 °F 37% 29.87 in 10.0 mi SW 6.9 mph - N/A   Overcast
2:58 PM 36.5 °F 32.7 °F 15.4 °F 42% 29.86 in 10.0 mi SW 4.6 mph - N/A   Overcast
3:18 PM 35.2 °F 28.8 °F 17.1 °F 48% 29.87 in 10.0 mi SSW 8.1 mph - N/A   Overcast
3:38 PM 35.8 °F 31.9 °F 16.7 °F 46% 29.87 in 10.0 mi SSW 4.6 mph - N/A   Overcast
3:58 PM 36.5 °F 31.0 °F 17.6 °F 46% 29.87 in 10.0 mi South 6.9 mph - N/A   Overcast
4:18 PM 36.0 °F 29.6 °F 15.4 °F 43% 29.88 in 10.0 mi ENE 8.1 mph - N/A   Overcast
4:38 PM 36.3 °F 30.1 °F 11.1 °F 35% 29.88 in 10.0 mi NNW 8.1 mph 21.9 mph N/A   Overcast
4:58 PM 35.1 °F 29.3 °F 12.2 °F 39% 29.89 in 10.0 mi East 6.9 mph 16.1 mph N/A   Overcast
5:18 PM 33.4 °F 27.3 °F 12.4 °F 42% 29.90 in 10.0 mi ENE 6.9 mph 16.1 mph N/A   Overcast
5:38 PM 33.1 °F 26.1 °F 10.9 °F 40% 29.91 in 10.0 mi East 8.1 mph - N/A   Overcast
5:58 PM 32.9 °F - 9.3 °F 37% 29.91 in 10.0 mi Calm Calm - N/A   Overcast
6:18 PM 32.0 °F - 10.0 °F 40% 29.92 in 10.0 mi Calm Calm - N/A   Scattered Clouds
6:38 PM 30.2 °F 18.9 °F 11.3 °F 45% 29.94 in 10.0 mi ENE 16.1 mph 21.9 mph N/A   Mostly Cloudy
6:58 PM 30.2 °F 18.5 °F 10.6 °F 44% 29.94 in 10.0 mi ENE 17.3 mph - N/A   Overcast
7:18 PM 30.0 °F 21.7 °F 10.2 °F 44% 29.95 in 10.0 mi East 9.2 mph - N/A   Scattered Clouds
7:38 PM 30.0 °F 20.5 °F 11.1 °F 45% 29.95 in 10.0 mi East 11.5 mph 21.9 mph N/A   Mostly Cloudy
7:58 PM 29.3 °F 23.2 °F 10.9 °F 46% 29.95 in 10.0 mi North 5.8 mph - N/A   Overcast
8:18 PM 28.0 °F 24.2 °F 10.8 °F 48% 29.97 in 10.0 mi WSW 3.5 mph - N/A   Overcast
8:38 PM 27.9 °F - 10.6 °F 48% 29.97 in 10.0 mi Calm Calm - N/A   Overcast
8:58 PM 30.2 °F 22.6 °F 10.9 °F 45% 29.97 in 10.0 mi East 8.1 mph 17.3 mph N/A   Overcast
9:18 PM 29.1 °F 23.0 °F 12.0 °F 49% 29.97 in 10.0 mi East 5.8 mph - N/A   Overcast
9:38 PM 29.5 °F 23.4 °F 12.0 °F 48% 29.97 in 10.0 mi NNW 5.8 mph - N/A   Overcast
9:58 PM 26.8 °F 22.8 °F 12.7 °F 56% 29.97 in 10.0 mi WNW 3.5 mph - N/A   Overcast
10:18 PM 26.8 °F 22.8 °F 13.1 °F 56% 29.98 in 10.0 mi NW 3.5 mph - N/A   Overcast
10:58 PM 28.9 °F 19.2 °F 12.0 °F 49% 29.98 in 10.0 mi WNW 11.5 mph 19.6 mph N/A   Overcast
11:18 PM 28.8 °F 23.7 °F 12.7 °F 51% 29.99 in 10.0 mi WNW 4.6 mph - N/A   Overcast
11:38 PM 27.7 °F 22.4 °F 13.5 °F 55% 29.99 in 10.0 mi South 4.6 mph - N/A   Overcast
11:58 PM 29.5 °F - 13.1 °F 51% 29.99 in 10.0 mi Calm Calm - N/A   Overcast